GW4419 Weather Reports


time (UTC)temp
C
wind
direction
speed
KPH
gust
KPH
rain 1hr
cm
rain 24hr
cm
rain mn
cm
humidity
%
barometer
mb
20260505071346 18 53 1.6 3.2 0.00 0.00 0.00 72 1007.3
20260505070845 18 233 1.6 1.6 0.00 0.00 0.00 72 1007.3
20260505070341 18 86 0.0 0.0 0.00 0.00 0.00 72 1007.5
20260505065836 18 269 1.6 1.6 0.00 0.00 0.00 72 1007.5
20260505065333 18 262 0.0 0.0 0.00 0.00 0.00 73 1007.5
20260505064830 18 213 0.0 0.0 0.00 0.00 0.00 72 1007.4
20260505064327 18 190 1.6 3.2 0.00 0.00 0.00 73 1007.3
20260505063825 18 182 3.2 4.8 0.00 0.00 0.00 74 1007.4
20260505063321 18 194 4.8 4.8 0.00 0.00 0.00 72 1007.3
20260505062818 18 1 4.8 4.8 0.00 0.00 0.00 73 1007.3
20260505062316 18 239 0.0 0.0 0.00 0.00 0.00 73 1007.0
20260505061812 18 204 0.0 0.0 0.00 0.00 0.00 73 1006.8
20260505061310 17 113 1.6 1.6 0.00 0.00 0.00 73 1006.9
20260505060807 18 101 0.0 1.6 0.00 0.00 0.00 73 1007.0
20260505060304 18 194 0.0 1.6 0.00 0.00 0.00 73 1006.9
20260505055759 17 60 1.6 1.6 0.00 0.00 0.00 73 1007.1
20260505055256 17 110 0.0 0.0 0.00 0.00 0.00 75 1007.1
20260505054753 17 218 0.0 0.0 0.00 0.00 0.00 74 1007.3
20260505054251 17 191 1.6 1.6 0.00 0.00 0.00 74 1007.4
20260505053749 17 172 0.0 0.0 0.00 0.00 0.00 75 1007.7
20260505053245 17 228 0.0 0.0 0.00 0.00 0.00 75 1007.9
20260505052742 17 248 0.0 0.0 0.00 0.00 0.00 75 1007.7
20260505052240 17 228 0.0 0.0 0.00 0.00 0.00 74 1007.3
20260505051736 17 77 0.0 0.0 0.00 0.00 0.00 74 1007.3
20260505051234 18 98 3.2 3.2 0.00 0.00 0.00 73 1007.2
20260505050732 18 259 1.6 1.6 0.00 0.00 0.00 73 1007.2
20260505050230 18 173 0.0 0.0 0.00 0.00 0.00 73 1007.3
20260505041659 18 216 0.0 0.0 0.00 0.00 0.00 69 1008.0
20260505041157 18 250 0.0 0.0 0.00 0.00 0.00 69 1008.0
20260505040654 18 193 0.0 0.0 0.00 0.00 0.00 69 1007.9
20260505040151 18 100 0.0 0.0 0.00 0.00 0.00 69 1007.8
20260505035648 19 140 3.2 4.8 0.00 0.00 0.00 68 1007.7
20260505035145 19 105 4.8 4.8 0.00 0.00 0.00 68 1007.9
20260505034641 19 144 1.6 3.2 0.00 0.00 0.00 68 1008.1
20260505034138 19 160 1.6 3.2 0.00 0.00 0.00 67 1008.0
20260505033634 19 139 0.0 1.6 0.00 0.00 0.00 67 1008.3
20260505033133 19 171 0.0 0.0 0.00 0.00 0.00 66 1008.3
20260505032630 20 183 0.0 0.0 0.00 0.00 0.00 66 1008.1
20260505032126 20 109 0.0 0.0 0.00 0.00 0.00 65 1008.3
20260505031624 20 128 0.0 1.6 0.00 0.00 0.00 65 1008.4
20260505031119 20 60 0.0 1.6 0.00 0.00 0.00 64 1008.4
20260505030617 20 161 3.2 3.2 0.00 0.00 0.00 63 1008.4
20260505030113 20 181 0.0 0.0 0.00 0.00 0.00 62 1008.4
20260505025608 20 74 1.6 3.2 0.00 0.00 0.00 62 1008.1
20260505025103 20 68 0.0 0.0 0.00 0.00 0.00 62 1008.1
20260505024559 20 142 3.2 4.8 0.00 0.00 0.00 61 1008.0
20260505024057 20 93 0.0 0.0 0.00 0.00 0.00 61 1007.8
20260505023554 20 167 4.8 9.7 0.00 0.00 0.00 61 1007.9
20260505023051 20 177 0.0 0.0 0.00 0.00 0.00 61 1007.9
20260505022549 20 81 0.0 1.6 0.00 0.00 0.00 61 1007.7
20260505022045 21 199 0.0 0.0 0.00 0.00 0.00 60 1007.6
20260505021542 21 203 3.2 3.2 0.00 0.00 0.00 60 1007.6
20260505021039 21 178 1.6 1.6 0.00 0.00 0.00 60 1007.7
20260505020538 21 45 0.0 1.6 0.00 0.00 0.00 59 1007.4
20260505020036 21 283 0.0 0.0 0.00 0.00 0.00 59 1007.4
20260505015533 21 241 0.0 0.0 0.00 0.00 0.00 59 1007.5
20260505015029 21 138 0.0 0.0 0.00 0.00 0.00 58 1007.3
20260505014526 21 190 1.6 3.2 0.00 0.00 0.00 58 1007.2
20260505014024 21 242 0.0 0.0 0.00 0.00 0.00 58 1007.0
20260505013521 21 209 1.6 3.2 0.00 0.00 0.00 57 1006.9
20260505013018 21 261 0.0 0.0 0.00 0.00 0.00 58 1006.9
20260505012516 21 160 0.0 0.0 0.00 0.00 0.00 57 1006.9
20260505012013 21 68 0.0 0.0 0.00 0.00 0.00 56 1006.9
20260505011508 21 193 0.0 1.6 0.00 0.00 0.00 56 1006.7
20260505011005 21 197 0.0 0.0 0.00 0.00 0.00 56 1006.8
20260505010501 22 88 1.6 1.6 0.00 0.00 0.00 55 1006.4
20260505005957 22 187 1.6 1.6 0.00 0.00 0.00 54 1006.6
20260505005454 22 73 0.0 0.0 0.00 0.00 0.00 54 1006.5
20260505004952 22 160 0.0 0.0 0.00 0.00 0.00 54 1006.5
20260505004448 22 191 1.6 3.2 0.00 0.00 0.00 53 1006.5
20260505003945 22 78 0.0 0.0 0.00 0.00 0.00 53 1006.3
20260505003442 23 215 0.0 1.6 0.00 0.00 0.00 52 1006.5
20260505002938 22 201 3.2 4.8 0.00 0.00 0.00 51 1006.6
20260505002435 23 237 0.0 0.0 0.00 0.00 0.00 52 1006.4
20260505001933 23 217 3.2 3.2 0.00 0.00 0.00 52 1006.4
20260505001431 23 113 0.0 1.6 0.00 0.00 0.00 52 1006.4
20260505000927 23 85 0.0 0.0 0.00 0.00 0.00 52 1006.4
20260505000428 23 172 0.0 0.0 0.00 0.00 0.00 53 1006.5
20260504235922 23 222 1.6 1.6 0.00 0.00 0.00 52 1006.5
20260504235420 24 138 0.0 0.0 0.00 0.00 0.00 52 1006.4
20260504234915 24 193 0.0 3.2 0.00 0.00 0.00 52 1006.4
20260504234408 24 274 0.0 0.0 0.00 0.00 0.00 52 1006.5
20260504233904 24 224 0.0 0.0 0.00 0.00 0.00 50 1006.4
20260504233400 24 143 1.6 4.8 0.00 0.00 0.00 50 1006.4
20260504232856 24 217 0.0 0.0 0.00 0.00 0.00 49 1006.6
20260504232354 24 160 0.0 1.6 0.00 0.00 0.00 49 1006.6
20260504231850 24 251 3.2 3.2 0.00 0.00 0.00 50 1006.7
20260504231347 24 133 1.6 3.2 0.00 0.00 0.00 50 1006.6
20260504230843 25 141 6.4 11.3 0.00 0.00 0.00 49 1006.8
20260504230341 25 134 6.4 9.7 0.00 0.00 0.00 49 1006.6
20260504225840 25 193 3.2 4.8 0.00 0.00 0.00 48 1006.7
20260504225335 25 76 1.6 3.2 0.00 0.00 0.00 48 1006.6
20260504224833 25 137 1.6 1.6 0.00 0.00 0.00 49 1006.6
20260504224330 25 194 0.0 0.0 0.00 0.00 0.00 49 1006.7
20260504223826 25 109 4.8 8.0 0.00 0.00 0.00 49 1006.7
20260504223322 25 227 1.6 1.6 0.00 0.00 0.00 48 1006.7
20260504222819 25 221 0.0 0.0 0.00 0.00 0.00 48 1006.8
20260504222316 25 241 1.6 1.6 0.00 0.00 0.00 47 1006.8
20260504221815 25 80 0.0 1.6 0.00 0.00 0.00 49 1006.9
20260504221310 25 213 0.0 1.6 0.00 0.00 0.00 49 1006.7
20260504220808 25 101 1.6 3.2 0.00 0.00 0.00 49 1006.6
20260504220304 25 243 1.6 1.6 0.00 0.00 0.00 47 1006.7
20260504215802 25 118 3.2 8.0 0.00 0.00 0.00 46 1006.7
20260504215258 25 185 8.0 11.3 0.00 0.00 0.00 45 1006.7
20260504214754 26 239 0.0 0.0 0.00 0.00 0.00 46 1006.8
20260504214251 26 135 4.8 4.8 0.00 0.00 0.00 46 1006.9
20260504213747 26 224 0.0 1.6 0.00 0.00 0.00 46 1006.9
20260504213243 26 76 4.8 12.9 0.00 0.00 0.00 46 1006.8
20260504212741 26 138 3.2 8.0 0.00 0.00 0.00 44 1006.8
20260504212237 26 160 3.2 3.2 0.00 0.00 0.00 44 1006.8
20260504211735 26 234 1.6 4.8 0.00 0.00 0.00 45 1006.8
20260504211231 26 226 3.2 3.2 0.00 0.00 0.00 44 1007.0
20260504210728 26 257 3.2 3.2 0.00 0.00 0.00 45 1007.0
20260504210225 26 289 1.6 3.2 0.00 0.00 0.00 46 1007.2
20260504205722 27 287 4.8 4.8 0.00 0.00 0.00 44 1007.4
20260504205220 27 230 3.2 3.2 0.00 0.00 0.00 44 1007.2
20260504204718 27 261 1.6 1.6 0.00 0.00 0.00 45 1007.3
20260504204216 26 244 1.6 1.6 0.00 0.00 0.00 44 1007.5
20260504203715 26 182 1.6 1.6 0.00 0.00 0.00 44 1007.5
20260504203212 26 121 3.2 4.8 0.00 0.00 0.00 43 1007.4
20260504202712 26 97 3.2 8.0 0.00 0.00 0.00 45 1007.5
20260504202209 26 123 4.8 8.0 0.00 0.00 0.00 44 1007.5
20260504201706 27 136 4.8 11.3 0.00 0.00 0.00 44 1007.7
20260504201204 27 282 1.6 3.2 0.00 0.00 0.00 45 1007.6
20260504200701 27 266 1.6 1.6 0.00 0.00 0.00 44 1007.6
20260504200157 26 111 3.2 4.8 0.00 0.00 0.00 45 1007.8
20260504195653 26 185 4.8 8.0 0.00 0.00 0.00 44 1007.9
20260504195149 26 154 1.6 3.2 0.00 0.00 0.00 44 1007.8
20260504194646 27 117 3.2 9.7 0.00 0.00 0.00 45 1008.0
20260504194142 27 329 0.0 0.0 0.00 0.00 0.00 44 1008.0
20260504193639 27 106 1.6 1.6 0.00 0.00 0.00 44 1008.0
20260504193137 27 201 1.6 3.2 0.00 0.00 0.00 45 1008.3
20260504192635 27 193 3.2 3.2 0.00 0.00 0.00 45 1008.1
20260504192133 26 0 4.8 9.7 0.00 0.00 0.00 46 1007.9
20260504191631 26 144 1.6 3.2 0.00 0.00 0.00 45 1007.9
20260504191127 26 187 4.8 8.0 0.00 0.00 0.00 46 1008.0
20260504190623 26 181 6.4 12.9 0.00 0.00 0.00 46 1008.1
20260504190120 26 188 11.3 14.5 0.00 0.00 0.00 45 1008.4
20260504185616 26 213 6.4 9.7 0.00 0.00 0.00 46 1008.3
20260504185113 26 299 0.0 0.0 0.00 0.00 0.00 48 1008.6
20260504184609 26 337 4.8 4.8 0.00 0.00 0.00 47 1008.5
20260504184104 26 79 3.2 11.3 0.00 0.00 0.00 46 1008.4
20260504183601 27 284 1.6 1.6 0.00 0.00 0.00 45 1008.5
20260504183059 27 197 4.8 8.0 0.00 0.00 0.00 46 1008.4
20260504182556 27 256 1.6 1.6 0.00 0.00 0.00 47 1008.4
20260504182053 26 132 4.8 9.7 0.00 0.00 0.00 47 1008.6
20260504181550 26 274 1.6 3.2 0.00 0.00 0.00 46 1008.6
20260504181048 26 183 3.2 4.8 0.00 0.00 0.00 46 1008.6
20260504180547 26 283 4.8 4.8 0.00 0.00 0.00 44 1008.5
20260504180046 26 266 1.6 3.2 0.00 0.00 0.00 48 1008.6
20260504175542 26 217 1.6 1.6 0.00 0.00 0.00 47 1008.6
20260504175039 26 105 6.4 9.7 0.00 0.00 0.00 48 1008.4
20260504174537 26 191 3.2 3.2 0.00 0.00 0.00 47 1008.5
20260504174034 26 318 0.0 1.6 0.00 0.00 0.00 46 1008.5
20260504173531 26 299 3.2 3.2 0.00 0.00 0.00 46 1008.1
20260504173028 26 240 1.6 3.2 0.00 0.00 0.00 47 1008.4
20260504172524 26 35 0.0 1.6 0.00 0.00 0.00 45 1008.5
20260504172021 26 182 1.6 3.2 0.00 0.00 0.00 48 1008.3
20260504171518 26 289 3.2 4.8 0.00 0.00 0.00 47 1008.5
20260504171015 25 232 3.2 4.8 0.00 0.00 0.00 45 1008.5
20260504170510 25 273 3.2 4.8 0.00 0.00 0.00 46 1008.3
20260504160431 24 26 0.0 1.6 0.00 0.00 0.00 47 1008.9
20260504150849 22 200 1.6 3.2 0.00 0.00 0.00 51 1009.7
20260504150346 22 318 3.2 4.8 0.00 0.00 0.00 51 1009.4
20260504141316 19 244 1.6 1.6 0.00 0.00 0.00 58 1009.9
20260504140812 19 208 1.6 1.6 0.00 0.00 0.00 58 1010.1
20260504140308 18 138 1.6 3.2 0.00 0.00 0.00 58 1010.1
20260504130737 17 150 4.8 4.8 0.00 0.00 0.00 61 1010.4
20260504130233 17 105 3.2 4.8 0.00 0.00 0.00 62 1010.4
20260504120156 16 234 1.6 1.6 0.00 0.00 0.00 64 1010.4
20260504110624 15 249 0.0 0.0 0.00 0.00 0.00 65 1010.5
20260504110120 15 276 1.6 1.6 0.00 0.00 0.00 65 1010.7
20260504100545 16 214 0.0 0.0 0.00 0.00 0.00 64 1011.0
20260504081933 16 203 3.2 3.2 0.00 0.00 0.00 62 1011.1
20260504081430 16 220 1.6 1.6 0.00 0.00 0.00 63 1011.0
20260504080926 17 238 1.6 1.6 0.00 0.00 0.00 63 1011.2
20260504080423 17 182 0.0 1.6 0.00 0.00 0.00 62 1011.2